Regional Weather Roundup
Issued by NWS

Home | Current Version | Previous Version | Text Only | Print | Product List | Glossary Off
Versions: 1 2 3 4 5 6 7 8 9 10 11 12 13 14 15 16 17 18 19 20 21 22 23 24 25 26 27 28 29 30 31 32 33 34 35 36 37 38 39 40 41 42 43 44 45 46 47 48 49 50

000
ASUS43 KOAX 281910
RWRNE
WEATHER ROUNDUP FOR NEBRASKA
NATIONAL WEATHER SERVICE OMAHA NE
200 PM CDT THU MAY 28 2015

NOTES: SATELLITE DATA IS BEING USED TO AUGMENT CLOUD COVER ABOVE
       12000 FEET.
       "FAIR" INDICATES FEW OR NO CLOUDS BELOW 12,000 FEET WITH NO
       SIGNIFICANT WEATHER AND/OR OBSTRUCTIONS TO VISIBILITY.

  * THESE STATIONS DO NOT REPORT WEATHER SUCH AS RAIN...SNOW OR FOG.

NEZ001>004-019>022-054>056-282000-
NEBRASKA PANHANDLE

CITY           SKY/WX    TMP DP  RH WIND       PRES   REMARKS
SCOTTSBLUFF    PTSUNNY   73  49  42 W12G21    29.98F
ALLIANCE       MOSUNNY   75  51  43 W9        29.95F
CHADRON        SUNNY     73  54  51 NW14      29.94F
KIMBALL          N/A    N/A N/A N/A MISG        N/A
SIDNEY         SUNNY     74  53  48 VRB6      29.99F
$$

NEZ057>060-069>072-079>082-282000-
SOUTHWEST NEBRASKA

CITY           SKY/WX    TMP DP  RH WIND       PRES   REMARKS
NORTH PLATTE   CLOUDY    69  59  70 S8        29.98S
IMPERIAL       MOSUNNY   69  58  67 VRB5      29.98F
LEXINGTON      CLOUDY    71  62  73 S12       29.99S
MCCOOK         PTSUNNY   74  60  61 S10G20    29.97F
OGALLALA       MOSUNNY   71  58  63 CALM      29.97F
$$

NEZ005>010-023>029-035>040-094-282000-
NORTH CENTRAL NEBRASKA

CITY           SKY/WX    TMP DP  RH WIND       PRES   REMARKS
VALENTINE      PTSUNNY   76  57  51 S12       29.92F
AINSWORTH      PTSUNNY   76  59  56 S10G20    29.94F
BROKEN BOW     CLOUDY    72  59  63 S15G25    29.98S
O`NEILL        MOSUNNY   79  57  45 S13       29.95F
ORD            PTSUNNY   76  57  51 S10       29.95F
THEDFORD       PTSUNNY   75  59  57 S13G21    29.96S
$$

NEZ041-046>049-061>064-073>077-083>087-282000-
SOUTH CENTRAL NEBRASKA

CITY           SKY/WX    TMP DP  RH WIND       PRES   REMARKS
GRAND ISLAND   CLOUDY    74  59  59 S14       29.99F
AURORA         CLOUDY    76  60  57 S16G22    29.98F
HASTINGS       CLOUDY    71  60  68 S13       29.99F
HEBRON         CLOUDY    76  60  56 SW13G18   30.00F
HOLDREGE       CLOUDY    69  59  69 S12       29.99F
KEARNEY *      CLOUDY    70  57  64 S16       29.99F
YORK           PTSUNNY   79  59  50 S16G24    29.98F
$$

NEZ011>018-030>034-042>045-282000-
NORTHEAST NEBRASKA

CITY           SKY/WX    TMP DP  RH WIND       PRES   REMARKS
NORFOLK        PTSUNNY   76  62  62 SE13      29.97F
ALBION         PTSUNNY   78  58  49 S9        29.97F
BLAIR          LGT RAIN  68  60  74 SE13G18   30.04R
COLUMBUS *     PTSUNNY   73  63  68 SE14G21   30.00S
FREMONT        RAIN      67  62  83 SE7       30.03S
TEKAMAH        LGT RAIN  72  61  68 SE16      30.02R
WAYNE          CLOUDY    73  61  66 S17G23    29.99S
$$

NEZ050>053-065>068-078-088>093-282000-
SOUTHEAST NEBRASKA

CITY           SKY/WX    TMP DP  RH WIND       PRES   REMARKS
LINCOLN        LGT RAIN  70  64  81 SE13      30.02F
OMAHA EPPLEY   LGT RAIN  70  64  81 S9        30.03S
BEATRICE       CLOUDY    72  64  74 S15       30.02F
FALLS CITY     RAIN      68  64  87 S15       30.05F
NEBRASKA CITY  CLOUDY    69  60  72 S13G21    30.04F
PLATTSMOUTH    CLOUDY    69  62  78 SE12G20   30.04S
$$

NEZ044-045-051>053-067-282000-
OMAHA AREA

CITY           SKY/WX    TMP DP  RH WIND       PRES   REMARKS
OMAHA EPPLEY   LGT RAIN  70  64  81 S9        30.03S
BLAIR          LGT RAIN  68  60  74 SE13G18   30.04R
FREMONT        RAIN      67  62  83 SE7       30.03S
MILLARD        LGT RAIN  70  64  79 S9        30.03S
OFFUTT AFB     LGT RAIN  71  64  77 CALM      30.02S
PLATTSMOUTH    CLOUDY    69  62  78 SE12G20   30.04S
WAHOO          LGT RAIN  68  62  82 S9        30.02F
$$



USA.gov is the U.S. government's official web portal to all federal, state and local government web resources and services.